This demonstration page uses our WeatherBlox Daily Observations layout. Learn more.

Left ArrowRight Arrow

Hourly Observations for March 28, 2020

Temp ( °F °C ) Dew Point ( °F °C ) Humidity (%) Winds ( mph kmh ) Pressure ( in mb ) Visibility ( mi km ) Precip ( " mm )
12:56 am 00:56 Cloudy 42 5.6 41 5 96 96 NE 13 20 29.64 1004 10 16 0.02 0.51
1:19 am 01:19 Cloudy with Nearby Thunderstorms 43 6 41 5 93 93 N 9 15 29.70 1006 10 16 0.01 0.25
1:31 am 01:31 Cloudy with Light Rain 41 5 39 4 93 93 NE 6 9 29.71 1006 8 13 0.05 1.27
1:56 am 01:56 Cloudy 41 5 40 4.4 96 96 NE 5 7 29.68 1005 10 16 0.05 1.27
2:28 am 02:28 Cloudy 41 5 39 4 93 93 ENE 6 9 29.67 1005 8 13 0.00 0.00
2:56 am 02:56 Cloudy 41 5 40 4.4 96 96 E 8 13 29.64 1004 10 16 0.00 0.00
3:18 am 03:18 Cloudy 39 4 39 4 100 100 ENE 7 11 29.66 1005 9 14 0.00 0.00
3:27 am 03:27 Cloudy 39 4 39 4 100 100 NE 7 11 29.65 1004 9 14 0.00 0.00
3:39 am 03:39 Cloudy 39 4 39 4 100 100 NNE 8 13 29.64 1004 8 13 0.00 0.00
3:56 am 03:56 Cloudy 41 5 40 4.4 96 96 NE 8 13 29.61 1003 10 16 0.00 0.00
4:03 am 04:03 Cloudy 41 5 39 4 93 93 NNE 12 19 29.63 1003 10 16 0.00 0.00
4:56 am 04:56 Cloudy 41 5 40 4.4 96 96 NNE 12 19 29.54 1001 8 13 0.00 0.00
5:56 am 05:56 Cloudy with Mist and Fog 41 5 40 4.4 96 96 NE 7 11 29.57 1001 4 6 0.00 0.00
6:11 am 06:11 Cloudy with Mist and Fog 41 5 41 5 100 100 NE 12 19 29.59 1002 3 4 0.00 0.00
6:24 am 06:24 Cloudy with Mist and Fog 41 5 41 5 100 100 ENE 10 17 29.59 1002 2 2 0.00 0.00
6:47 am 06:47 Cloudy with Light Rain 41 5 41 5 100 100 ENE 12 19 29.56 1001 1 2 0.00 0.00
6:56 am 06:56 Cloudy with Light Rain 41 5 41 5 100 100 ENE 13 20 29.53 1000 1 1 0.00 0.00
7:16 am 07:16 Cloudy with Fog 41 5 41 5 100 100 NE 9 15 29.57 1001 1 1 0.00 0.00
7:37 am 07:37 Cloudy with Fog 41 5 41 5 100 100 ENE 13 20 29.56 1001 0 0 0.00 0.00
7:56 am 07:56 Cloudy with Fog 41 5 41 5 100 100 ENE 15 24 29.51 999 0 0 0.00 0.00
8:27 am 08:27 Cloudy with Light Rain 43 6 41 5 93 93 NNW 10 17 29.55 1001 1 1 0.00 0.00
8:31 am 08:31 Cloudy with Light Rain 43 6 41 5 93 93 NNW 10 17 29.55 1001 1 2 0.00 0.00
8:38 am 08:38 Cloudy with Light Rain 43 6 41 5 93 93 N 10 17 29.55 1001 3 5 0.00 0.00
8:56 am 08:56 Cloudy with Light Rain 42 5.6 41 5 96 96 N 9 15 29.51 999 5 8 0.01 0.25
9:17 am 09:17 Cloudy with Light Rain 41 5 41 5 100 100 N 13 20 29.55 1001 9 14 0.00 0.00
9:37 am 09:37 Cloudy with Light Rain 41 5 39 4 93 93 N 14 22 29.54 1000 3 5 0.01 0.25
9:56 am 09:56 Cloudy with Light Rain 41 5 41 5 100 100 N 17 28 29.49 999 4 6 0.01 0.25
10:10 am 10:10 Cloudy with Light Rain 43 6 41 5 93 93 N 20 31 29.51 999 3 5 0.00 0.00
10:26 am 10:26 Cloudy with Light Rain 43 6 41 5 93 93 N 17 28 29.51 999 8 13 0.00 0.00
10:33 am 10:33 Cloudy 43 6 41 5 93 93 NNW 17 28 29.51 999 10 16 0.00 0.00
10:56 am 10:56 Cloudy with Light Rain 42 5.6 40 4.4 92 92 N 18 30 29.47 998 10 16 0.01 0.25
11:56 am 11:56 Cloudy with Light Rain 40 4.4 38 3.3 93 93 NNW 22 35 29.48 998 10 16 0.13 3.30
12:13 pm 12:13 Cloudy with Light Rain 39 4 37 3 93 93 NNW 23 37 29.52 1000 10 16 0.01 0.25
12:56 pm 12:56 Cloudy with Light Rain 39 3.9 38 3.3 96 96 NNW 24 39 29.49 999 10 16 0.03 0.76
1:22 pm 13:22 Cloudy with Light Rain 39 4 37 3 93 93 NNW 23 37 29.53 1000 10 16 0.01 0.25
1:51 pm 13:51 Cloudy with Light Rain 39 4 37 3 93 93 NNW 22 35 29.56 1001 9 14 0.00 0.00
1:56 pm 13:56 Cloudy with Light Rain 39 3.9 37 2.8 93 93 NNW 25 41 29.52 1000 9 14 0.02 0.51
2:56 pm 14:56 Cloudy with Light Rain 40 4.4 38 3.3 93 93 NNW 25 41 29.56 1001 8 13 0.02 0.51
3:49 pm 15:49 Cloudy with Light Rain 37 3 37 3 100 100 NNW 28 44 29.64 1004 10 16 0.00 0.00
3:56 pm 15:56 Cloudy with Light Rain 38 3.3 36 2.2 93 93 NW 26 43 29.61 1003 10 16 0.04 1.02
4:40 pm 16:40 Cloudy with Light Rain 39 4 37 3 93 93 NW 28 44 29.68 1005 10 16 0.01 0.25
4:56 pm 16:56 Cloudy with Light Rain 40 4.4 37 2.8 89 89 NNW 24 39 29.65 1004 10 16 0.02 0.51
5:56 pm 17:56 Cloudy with Light Rain 41 5 39 3.9 93 93 NNW 22 35 29.71 1006 6 10 0.03 0.76
6:03 pm 18:03 Cloudy with Light Rain 41 5 39 4 93 93 NNW 22 35 29.74 1007 7 11 0.01 0.25
6:46 pm 18:46 Cloudy 43 6 37 3 81 81 NNW 28 44 29.76 1008 10 16 0.01 0.25
6:56 pm 18:56 Cloudy 42 5.6 36 2.2 79 79 NNW 28 44 29.75 1007 10 16 0.01 0.25
7:56 pm 19:56 Cloudy 42 5.6 37 2.8 82 82 NW 14 22 29.78 1009 10 16 0.00 0.00
8:56 pm 20:56 Clear 42 5.6 37 2.8 82 82 W 14 22 29.81 1009 10 16 0.00 0.00
9:56 pm 21:56 Cloudy 42 5.6 36 2.2 79 79 WNW 10 17 29.84 1011 10 16 0.00 0.00
10:56 pm 22:56 Mostly Cloudy 41 5 35 1.7 79 79 WNW 14 22 29.85 1011 10 16 0.00 0.00
11:56 pm 23:56 Clear 40 4.4 35 1.7 83 83 WNW 9 15 29.88 1012 10 16 0.00 0.00

Powered by AerisWeather